Showing default

COSMOS 2333, 24297

Orbit data source: Space-Track

COSMOS 2333, 24297 is a payload satellite owned by GRU (CIS) in LEO that was launched on Wed, 04 Sep 1996 UTC via a ZENIT-2 launch vehicle from the Tyuratam Missile And Space Complex (TTMTR). Payload-class satellites include a variety of spacecraft equipped with specific instruments for various scientific and technological missions. These include communications satellites like Starlink; space stations such as the ISS; scientific satellites like the Hubble; Earth observation satellites from companies like Planet Labs, Umbra, and HawkEye 360; GPS; miniature CubeSats for education and research; and military/defense satellites.

Loading next visibility...
Identifier
24297, 1996-051A
Orbit
LEO
Country
Flag of CISCIS
Related business
Manufacturer
Yuzhnoe
Mission
Defense Sigint
Bus & Motor
TSELINA-2, Unknown motor
Mass
3,250 kg wet, 3,250 kg dry
Launch date (UTC)
1996-09-04 (29 years ago)
Launch vehicle
ZENIT-2
Launch site
Tyuratam Missile And Space Complex (TTMTR)
Object type
Payload
Rocket body
Debris
Shape & HBR
Unknown shape, 9.5 m
Radar Cross Section
Large (>1 m²)

Expand to show TLE details & history
Last TLE update: 9 hours ago

TLE from 9 hours ago
0 COSMOS 2333
1 24297U 96051A   25345.31132850  .00000185  00000-0  12296-3 0  9994
2 24297  70.9063  10.5373 0025957 239.5276 120.3281 14.13806895509749
Epoch: 2025-12-11T07:28Z
TLE epoch observation values (Epoch: 2025-12-11T07:28:18.782Z)
Latitude
-0.00007°
Longitude
178.18989°
Altitude
858.273 km
Speed
7.419 km/s
True Right ascension
00h 42m 08s
True Declination
0° 00' 00"
Sunlit
Object was in daylight at epoch
Visualization orbit readout
Latitude
Unknown
Longitude
Unknown
Altitude
Unknown
Speed
Unknown
Apparent Right ascension
Unknown
Apparent Declination
Unknown
Sunlit
N/A
Visualization observer readout
Local Sidereal Time
14:33:16
Azimuth
Unknown
Elevation
Unknown
Doppler factor
Unknown
Orbital elements
Apogee altitude
863.056 km
Perigee altitude
825.562 km
Semi-major axis
7,222.446 km
Eccentricity
0.0026
Inclination
70.9063°
RAAN
10.5373°
Arg. of periapsis
239.5276°
True anomaly
120.58442°
Mean anomaly
120.3281°
Eccentric anomaly
120.4563°
Mean motion
3.53604 °/min
Orbital period
101.81 mins
BSTAR
0.00012296
Loading maneuver chart data...
Computing Atmospheric mass density...
Loading historical data...
Loading historical data...
Loading historical data...
Loading historical data...
Loading historical data...
Loading historical data...
Loading historical data...

Documentation

Showing up to 5 results
|